Regional Weather Roundup
Issued by NWS

Home | Current Version | Previous Version | Text Only | Print | Product List | Glossary Off
Versions: 1 2 3 4 5 6 7 8 9 10 11 12 13 14 15 16 17 18 19 20 21 22 23 24 25 26 27 28 29 30 31 32 33 34 35 36 37 38 39 40 41 42 43 44 45 46 47 48 49 50

000
ASUS43 KIND 180209
RWRIN

WEATHER ROUNDUP FOR INDIANA
NATIONAL WEATHER SERVICE INDIANAPOLIS IN
900 PM EST TUE JAN 17 2017

NOTE: "FAIR" INDICATES FEW OR NO CLOUDS BELOW 12,000 FEET WITH NO
SIGNIFICANT WEATHER AND/OR OBSTRUCTIONS TO VISIBILITY.

* - STATION DOES NOT REPORT WEATHER SUCH AS PRECIPITATION OR FOG.

+ - STATION NOT QUALITY CONTROLLED BY THE NATIONAL WEATHER SERVICE.
    USE DATA WITH CAUTION...ESPECIALLY DEWPOINT AND RELATIVE
    HUMIDITY OBSERVATIONS.

INZ001>003-010>013-019-020-180300-
NORTHWEST INDIANA

CITY           SKY/WX    TMP DP  RH WIND       PRES   REMARKS
GARY /AIRPORT/ CLOUDY    37  36  93 W12G24    30.00R FOG
KNOX *+        CLOUDY    36  30  80 W13       30.00R
LA PORTE +     CLOUDY    35  34  96 W13       29.99R FOG     WCI  26
MICHIGAN CITY+ CLOUDY    36  36 100 W8G16     29.99R FOG
MONTICELLO +   CLOUDY    37  35  95 W13       30.03R
RENSSELAER +     N/A     36  36 100 W13       30.03R FOG
VALPARAISO     CLOUDY    37  35  92 W15G22    30.00R

$$

LMZ046-743>745-180300-
SOUTHERN LAKE MICHIGAN

STATION/POSITION TIME  TEMP    WIND        PRES    WAVE
                       AIR SEA DIR/SP/G            HT
                 (UTC) (F)     (DEG/KT/KT) (MB)    (FT)

$$

INZ004-005-014>016-021>024-180300-
NORTH CENTRAL INDIANA

CITY           SKY/WX    TMP DP  RH WIND       PRES   REMARKS
ELKHART        DRIZZLE   37  36  93 W9        29.96R
GOSHEN         CLOUDY    37  34  89 W15       29.96R FOG
LOGANSPORT +   CLOUDY    36  36 100 W16G25    30.03R FOG
PERU/GRISSOM   CLOUDY    38  38 100 W21       29.99R
ROCHESTER +    CLOUDY    37  37 100 W12G17    30.01R FOG
SOUTH BEND     CLOUDY    35  35 100 W14       29.98R FOG     WCI  26
WARSAW +       MIX PCPN  36  34  93 W10G18    29.97S

$$

INZ006>009-017-018-025>027-180300-
NORTHEAST INDIANA

CITY           SKY/WX    TMP DP  RH WIND       PRES   REMARKS
ANGOLA *+      CLOUDY    37  37 100 W8        29.94R
AUBURN +       CLOUDY    37  36  93 W9G18     29.96S FOG
FORT WAYNE     CLOUDY    40  37  89 W17G25    29.97S
HUNTINGTON +   CLOUDY    39  38  96 W8G21     29.98R
KENDALLVILLE + CLOUDY    37  37 100 W12G17    29.95R FOG

$$

INZ028-029-035-036-043>045-051>053-180300-
WEST CENTRAL INDIANA

CITY           SKY/WX    TMP DP  RH WIND       PRES   REMARKS
CRAWFORDSVL +  CLOUDY    37  37 100 W10       30.06R
GREENCASTLE +  CLOUDY    39  37  93 W8G16     30.06R
LAFAYETTE      CLOUDY    37  36  96 W12       30.04S
TERRE HAUTE    CLOUDY    42  37  82 W10       30.08R

$$

INZ030>032-037>040-046>048-054>057-064-065-180300-
CENTRAL INDIANA

CITY           SKY/WX    TMP DP  RH WIND       PRES   REMARKS
CP ATTERBURY + CLOUDY    43  39  87 W9        30.06R
COLUMBUS       CLOUDY    43  43 100 W8        30.05S
FISHERS *+     CLOUDY    39  39 100 W12       30.03S
FRANKFORT +    CLOUDY    41  39  95 W18G24    30.05R FOG
GREENWOOD *+   CLOUDY    44  42  95 W6        30.03F
INDIANAPOLIS   DRIZZLE   42  41  96 W13       30.03S FOG
-EAGLE CREEK   CLOUDY    41  39  93 W18G24    30.02S
KOKOMO +       CLOUDY    39  38  96 W16       30.02R FOG
MARION +       CLOUDY    39  37  93 W18       30.01R FOG
MT COMFORT *+  CLOUDY    41  41 100 W10       30.02F
SHELBYVILLE    LGT RAIN  44  41  89 W9        30.03R FOG
ZIONSVILLE +   CLOUDY    39  38  94 W15G21    30.03S

$$

INZ033-034-041-042-049-050-058-059-180300-
EAST CENTRAL INDIANA

CITY           SKY/WX    TMP DP  RH WIND       PRES   REMARKS
MUNCIE         CLOUDY    44  41  89 W14       30.00R FOG

$$

INZ060-061-067>069-081>083-085>088-180300-
SOUTHWEST INDIANA

CITY           SKY/WX    TMP DP  RH WIND       PRES   REMARKS
EVANSVILLE     CLOUDY    44  40  85 W9        30.14R
HUNTINGBURG *+ CLOUDY    43  39  87 W10       30.13R
WASHINGTON +   CLOUDY    43  40  90 W10       30.10S

$$

INZ062-063-066-070>080-084-089>092-180300-
SOUTH CENTRAL AND SOUTHEAST INDIANA

CITY           SKY/WX    TMP DP  RH WIND       PRES   REMARKS
BLOOMINGTON    LGT RAIN  43  40  89 W14       30.06R FOG
MADISON *+     CLOUDY    45  41  87 SW6       30.08R
NORTH VERNON + CLOUDY   N/A N/A N/A W9        30.05S
SEYMOUR +      CLOUDY    46  43  87 W8        30.07R

$$




USA.gov is the U.S. government's official web portal to all federal, state and local government web resources and services.